Location: Chateh
(58.6667°N, 118.6000°W)
Time: 08:22:50
(UTC+00:00)

O/OREOS (USA 219) - Pass Details

Date: 06 December 2023
Orbit: 621 x 646 km, 72.0° (Epoch: 22 May)

Event Time Altitude Azimuth Distance (km) Brightness Sun altitude
Exits shadow 11:40:36 11° 26° (NNE) 1,932 ? -35.1°
Drops below altitude 10° 11:40:56 10° 30° (NNE) 2,009 ? -35.1°
Sets 11:44:02 0° 52° (NE) 2,921 ? -34.7°
